Regional Weather Roundup
Issued by NWS

Home | Current Version | Previous Version | Text Only | Print | Product List | Glossary On
Versions: 1 2 3 4 5 6 7 8 9 10 11 12 13 14 15 16 17 18 19 20 21 22 23 24 25 26 27 28 29 30 31 32 33 34 35 36 37 38 39 40 41 42 43 44 45 46 47 48 49 50
000
ASUS45 KBOU 050307
RWRCO

WEATHER ROUNDUP FOR COLORADO
NATIONAL WEATHER SERVICE DENVER/BOULDER CO
900 PM MDT TUE AUG 04 2015

NOTE: "FAIR" INDICATES FEW OR NO CLOUDS BELOW 12000 FEET WITH NO
SIGNIFICANT WEATHER AND/OR OBSTRUCTIONS TO VISIBILITY.

COZ001>005-013-030-031-050400-
...NORTHWEST COLORADO...

CITY           SKY/WX    TMP DP  RH WIND       PRES   REMARKS
CRAIG          NOT AVBL
HAYDEN         CLOUDY    70  43  37 SW6       30.23R
MEEKER         CLEAR     67  40  37 E5        30.22R
MOUNT WERNER   NOT AVBL
STEAMBOAT SPGS   N/A    N/A N/A N/A MISG        N/A
WALDEN         CLEAR     59  36  41 SW6       30.35R
$$

COZ006>008-011-050400-
...WEST CENTRAL VALLEYS...

CITY           SKY/WX    TMP DP  RH WIND       PRES   REMARKS
GRAND JUNCTION CLEAR     77  37  23 CALM      30.06R
MONTROSE       CLEAR     75  48  38 S7        30.17R
EAGLE          PTCLDY    72  39  30 W7        30.25R
RIFLE          PTCLDY    74  49  41 SE6       30.14R
DELTA          CLEAR     76  42  29 NE3       30.11R
NUCLA          CLEAR     77  41  27 S3        30.21R
$$

COZ017>023-064>068-050400-
...SOUTHWEST COLORADO...

CITY           SKY/WX    TMP DP  RH WIND       PRES   REMARKS
DURANGO        CLEAR     73  39  29 NW10      30.24R
CORTEZ         CLEAR     67  48  50 E6        30.18R
PAGOSA SPRINGS CLEAR     68  36  30 NW5       30.32R
TELLURIDE      CLEAR     61  43  50 SE7       30.47S
WOLF CREEK PAS NOT AVBL
$$

COZ009-010-012-014-032>034-037-058>063-050400-
...CENTRAL COLORADO...

CITY           SKY/WX    TMP DP  RH WIND       PRES   REMARKS
ASPEN          MOCLDY    61  47  59 SW10      30.34R
BUENA VISTA    PTCLDY    68  35  30 NW7       30.35R
COPPER MTN     MOCLDY    54  34  47 W10G18    30.67R
BERTHOUD PASS  FAIR      43  32  65 NW23      30.69R
COTTONWOOD PAS PTCLDY    64  30  27 W15G22    30.50R
GUNNISON       CLEAR     64  39  39 N6        30.35R
KREMMLING      PTCLDY    70  30  23 NW6       30.31R
LEADVILLE      PTCLDY    56  35  45 CALM      30.50R
MONARCH PASS   CLEAR     50  30  46 NW8       30.77S
SALIDA         PTCLDY    67  38  34 W9        30.38R
SUNLIGHT       PTCLDY    54  39  58 CALM      30.60R
WILKERSON PASS NOT AVBL
$$

COZ069>075-050400-
...SAN LUIS VALLEY/SANGRE DE CRISTO MOUNTAINS...

CITY           SKY/WX    TMP DP  RH WIND       PRES   REMARKS
ALAMOSA        MOCLDY    71  38  29 N9        30.29R
LA VETA PASS   PTCLDY    59  32  36 MISG      30.51S
SAGUACHE       CLEAR     63  37  39 N9        30.35R
$$

COZ035-036-038>040-050400-
...NORTHERN COLORADO FRONT RANGE...

CITY           SKY/WX    TMP DP  RH WIND       PRES   REMARKS
DENVER INTL AP PTCLDY    70  47  43 E10       30.12R
DMNS CITY PARK   N/A     79  34  19 NW6G12    30.11R
AURORA         PTCLDY    72  49  44 S2        30.14R
FRONT RANGE AP NOT AVBL
ERIE MUNI ARPT CLEAR     73  38  28 NW3       30.09R
BOULDER MUN AP CLEAR     75  37  25 NW7       30.11R
CENTENNIAL     PTCLDY    73  49  42 N5        30.14R
BROOMFIELD     PTCLDY    75  34  22 W13       30.14R
FORT COLLINS   PTCLDY    73  52  46 E10       30.10R
LONGMONT       PTCLDY    78  36  21 N5        30.11R
$$

COZ041-046-047-076>085-087-088-050400-
...PIKES PEAK/PALMER DIVIDE AND SOUTHERN FOOTHILLS...

CITY           SKY/WX    TMP DP  RH WIND       PRES   REMARKS
COLO. SPRINGS  PTCLDY    70  55  59 NE12      30.19R
A. F. ACADEMY  CLEAR     67  50  54 N6        30.22R
ELLICOTT       PTCLDY   N/A N/A N/A E13       30.18R
FALCON         CLEAR     63  55  75 N6        30.26R
FORT CARSON    NOT AVBL
LIMON          CLEAR     63  55  75 SE5       30.14R
MONUMENT HILL  CLEAR     61  50  67 SE8       30.26R
TRINIDAD       CLEAR     75  43  31 W6        30.11R
$$

COZ042>045-048>051-090-091-050400-
...NORTHEAST COLORADO...

CITY           SKY/WX    TMP DP  RH WIND       PRES   REMARKS
GREELEY ARPT   PTCLDY    70  54  56 NE6       30.11R
AKRON          CLEAR     67  57  70 SE6       30.08R
BURLINGTON     CLEAR     68  61  78 SE8       30.06R
WRAY           PTCLDY    68  59  73 SW3       30.01S
STERLING       CLEAR     68  57  68 CALM      30.03R
HOLYOKE        PTCLDY    66  63  88 CALM      30.03R
FORT MORGAN    PTCLDY    68  53  58 E5        30.08R
$$

COZ086-089-092>099-050400-
...SOUTHEAST COLORADO...

CITY           SKY/WX    TMP DP  RH WIND       PRES   REMARKS
PUEBLO         CLEAR     79  58  48 NE18      30.05R
LA JUNTA       CLEAR     80  55  42 NE15      30.01R
LAMAR          CLEAR     78  62  57 NE18G28   29.97R
SPRINGFIELD      N/A     77  64  64 S15       30.01R
$$


USA.gov is the U.S. government's official web portal to all federal, state and local government web resources and services.